DAL1038 KRDU-KFLL

Flight info

Callsign DAL1038
Flight time 1h 34m
Altitude 36000
Route ROZBO5 ROZBO GARIC JRDAN Y291 MAJIK CUUDA3
Aircraft A320/M-SDE3FGHIRWY/LB1

Departure

Time 2026-05-07 17:11
Airport Raleigh-Durham International Airport (KRDU)

Arrival

Time 2026-05-07 18:46
Airport Fort Lauderdale Hollywood International Airport (KFLL)
Time Latitude Longitude Altitude Speed Heading
2026-05-07 16:51 35.87695 -78.79478 412 ft 0 kts 136°
2026-05-07 17:03 35.87707 -78.79492 418 ft 4 kts 127°
2026-05-07 17:04 35.87720 -78.79520 413 ft 4 kts 108°
2026-05-07 17:04 35.87727 -78.79552 419 ft 4 kts 116°
2026-05-07 17:04 35.87734 -78.79564 417 ft 0 kts 151°
2026-05-07 17:06 35.87733 -78.79563 417 ft 1 kts 151°
2026-05-07 17:06 35.87717 -78.79565 421 ft 6 kts 191°
2026-05-07 17:06 35.87706 -78.79570 422 ft 0 kts 200°
2026-05-07 17:07 35.87699 -78.79576 420 ft 2 kts 225°
2026-05-07 17:07 35.87675 -78.79635 425 ft 8 kts 258°
2026-05-07 17:07 35.87680 -78.79690 429 ft 6 kts 275°
2026-05-07 17:08 35.87648 -78.79756 427 ft 12 kts 224°
2026-05-07 17:08 35.87574 -78.79848 419 ft 16 kts 225°
2026-05-07 17:08 35.87511 -78.79926 425 ft 10 kts 225°
2026-05-07 17:08 35.87457 -78.79992 429 ft 12 kts 225°
2026-05-07 17:09 35.87402 -78.80064 418 ft 9 kts 235°
2026-05-07 17:09 35.87399 -78.80106 423 ft 4 kts 285°
2026-05-07 17:09 35.87440 -78.80158 425 ft 9 kts 341°
2026-05-07 17:09 35.87497 -78.80128 434 ft 12 kts 41°
2026-05-07 17:10 35.87502 -78.80123 429 ft 0 kts 44°
2026-05-07 17:10 35.87504 -78.80119 428 ft 4 kts 44°
2026-05-07 17:10 35.87676 -78.79909 427 ft 71 kts 45°
2026-05-07 17:11 35.88174 -78.79295 429 ft 130 kts 45°
2026-05-07 17:11 35.88914 -78.78402 669 ft 153 kts 45°
2026-05-07 17:11 35.89570 -78.77317 1171 ft 166 kts 69°
2026-05-07 17:11 35.89553 -78.75926 1940 ft 170 kts 113°
2026-05-07 17:12 35.88779 -78.74790 2547 ft 184 kts 143°
2026-05-07 17:12 35.87490 -78.74334 2819 ft 210 kts 174°
2026-05-07 17:12 35.85956 -78.74181 3079 ft 231 kts 174°
2026-05-07 17:12 35.84272 -78.74015 3422 ft 255 kts 175°
2026-05-07 17:13 35.82433 -78.73834 3989 ft 271 kts 176°
2026-05-07 17:13 35.80541 -78.73646 4874 ft 274 kts 177°
2026-05-07 17:13 35.78632 -78.73453 5772 ft 276 kts 178°
2026-05-07 17:13 35.76710 -78.73258 6638 ft 278 kts 178°
2026-05-07 17:14 35.74768 -78.73060 7445 ft 282 kts 179°
2026-05-07 17:14 35.72797 -78.72856 8259 ft 286 kts 180°
2026-05-07 17:14 35.70801 -78.72651 9062 ft 290 kts 180°
2026-05-07 17:14 35.68770 -78.72443 9834 ft 296 kts 180°
2026-05-07 17:15 35.66689 -78.72231 10384 ft 309 kts 180°
2026-05-07 17:15 35.64467 -78.72010 10602 ft 333 kts 180°
2026-05-07 17:15 35.62097 -78.71774 11003 ft 347 kts 180°
2026-05-07 17:15 35.59703 -78.71528 11666 ft 352 kts 180°
2026-05-07 17:16 35.57246 -78.71270 12390 ft 355 kts 180°
2026-05-07 17:16 35.54776 -78.71010 13140 ft 357 kts 180°
2026-05-07 17:16 35.52290 -78.70749 13847 ft 360 kts 180°
2026-05-07 17:16 35.49786 -78.70468 14478 ft 363 kts 179°
2026-05-07 17:17 35.47268 -78.70132 15113 ft 365 kts 179°
2026-05-07 17:17 35.44725 -78.69759 15732 ft 369 kts 179°
2026-05-07 17:17 35.42171 -78.69371 16342 ft 371 kts 179°
2026-05-07 17:17 35.39591 -78.68979 16937 ft 374 kts 179°
2026-05-07 17:18 35.37002 -78.68593 17527 ft 377 kts 180°
2026-05-07 17:18 35.34380 -78.68212 18100 ft 380 kts 180°
2026-05-07 17:18 35.31740 -78.67834 18606 ft 383 kts 180°
2026-05-07 17:18 35.29080 -78.67456 19113 ft 387 kts 180°
2026-05-07 17:19 35.26394 -78.67076 19613 ft 390 kts 180°
2026-05-07 17:19 35.23722 -78.66698 20096 ft 393 kts 180°
2026-05-07 17:19 35.20996 -78.66312 20564 ft 396 kts 180°
2026-05-07 17:19 35.18241 -78.65921 21027 ft 400 kts 181°
2026-05-07 17:20 35.15465 -78.65524 21495 ft 403 kts 181°
2026-05-07 17:20 35.12665 -78.65124 21947 ft 406 kts 181°
2026-05-07 17:20 35.09843 -78.64722 22400 ft 410 kts 181°
2026-05-07 17:20 35.07002 -78.64315 22841 ft 413 kts 181°
2026-05-07 17:21 35.04145 -78.63909 23270 ft 416 kts 181°
2026-05-07 17:21 35.01260 -78.63499 23650 ft 419 kts 181°
2026-05-07 17:21 34.98357 -78.63080 24009 ft 422 kts 180°
2026-05-07 17:21 34.95450 -78.62298 24318 ft 435 kts 171°
2026-05-07 17:22 34.92590 -78.60879 24552 ft 452 kts 162°
2026-05-07 17:22 34.89770 -78.59151 24861 ft 456 kts 162°
2026-05-07 17:22 34.86922 -78.57414 25208 ft 458 kts 162°
2026-05-07 17:22 34.84064 -78.55676 25549 ft 460 kts 162°
2026-05-07 17:23 34.81197 -78.53940 25901 ft 461 kts 162°
2026-05-07 17:23 34.78311 -78.52200 26256 ft 463 kts 162°
2026-05-07 17:23 34.75415 -78.50460 26608 ft 465 kts 162°
2026-05-07 17:23 34.72541 -78.48735 26959 ft 467 kts 162°
2026-05-07 17:24 34.69617 -78.46980 27285 ft 469 kts 162°
2026-05-07 17:24 34.66684 -78.45218 27597 ft 471 kts 162°
2026-05-07 17:24 34.63737 -78.43447 27909 ft 474 kts 162°
2026-05-07 17:24 34.60770 -78.41661 28215 ft 476 kts 162°
2026-05-07 17:25 34.57793 -78.39872 28527 ft 478 kts 162°
2026-05-07 17:25 34.54806 -78.38078 28828 ft 480 kts 162°
2026-05-07 17:25 34.51808 -78.36278 29115 ft 482 kts 162°
2026-05-07 17:25 34.48801 -78.34476 29394 ft 483 kts 162°
2026-05-07 17:26 34.45780 -78.32673 29660 ft 485 kts 162°
2026-05-07 17:26 34.42746 -78.30863 29881 ft 487 kts 162°
2026-05-07 17:26 34.39696 -78.29040 30073 ft 490 kts 162°
2026-05-07 17:26 34.36637 -78.27209 30273 ft 492 kts 162°
2026-05-07 17:27 34.33600 -78.25390 30477 ft 493 kts 162°
2026-05-07 17:27 34.30516 -78.23549 30702 ft 494 kts 162°
2026-05-07 17:27 34.27437 -78.21716 31008 ft 493 kts 162°
2026-05-07 17:27 34.24364 -78.19890 31315 ft 491 kts 162°
2026-05-07 17:28 34.21301 -78.18071 31603 ft 490 kts 163°
2026-05-07 17:28 34.18239 -78.16255 31890 ft 489 kts 163°
2026-05-07 17:28 34.15183 -78.14445 32136 ft 489 kts 163°
2026-05-07 17:28 34.12128 -78.12636 32396 ft 489 kts 163°
2026-05-07 17:29 34.09075 -78.10824 32662 ft 489 kts 163°
2026-05-07 17:29 34.06026 -78.09012 32935 ft 488 kts 163°
2026-05-07 17:29 34.02981 -78.07205 33214 ft 488 kts 163°
2026-05-07 17:29 33.99930 -78.05401 33500 ft 487 kts 163°
2026-05-07 17:30 33.96891 -78.03609 33780 ft 486 kts 163°
2026-05-07 17:30 33.93854 -78.01821 34043 ft 486 kts 164°
2026-05-07 17:30 33.90808 -78.00077 34286 ft 481 kts 168°
2026-05-07 17:30 33.87690 -77.98783 34503 ft 468 kts 176°
2026-05-07 17:31 33.84546 -77.98038 34742 ft 455 kts 184°
2026-05-07 17:31 33.81420 -77.97771 34970 ft 448 kts 188°
2026-05-07 17:31 33.78308 -77.97594 35192 ft 448 kts 188°
2026-05-07 17:31 33.75198 -77.97411 35423 ft 447 kts 188°
2026-05-07 17:32 33.72090 -77.97221 35645 ft 447 kts 188°
2026-05-07 17:32 33.68990 -77.97026 35843 ft 446 kts 188°
2026-05-07 17:32 33.63840 -77.96714 35917 ft 445 kts 188°
2026-05-07 17:33 33.56594 -77.96281 35915 ft 447 kts 187°
2026-05-07 17:33 33.50420 -77.95907 35918 ft 447 kts 188°
2026-05-07 17:34 33.44207 -77.95537 35920 ft 448 kts 187°
2026-05-07 17:34 33.37986 -77.95166 35925 ft 448 kts 187°
2026-05-07 17:35 33.31754 -77.94790 35903 ft 449 kts 186°
2026-05-07 17:35 33.25509 -77.94413 35911 ft 450 kts 186°
2026-05-07 17:36 33.19244 -77.94048 35919 ft 451 kts 187°
2026-05-07 17:36 33.14034 -77.93741 35924 ft 451 kts 186°
2026-05-07 17:37 33.07752 -77.93362 35906 ft 451 kts 187°
2026-05-07 17:37 33.00734 -77.94407 35911 ft 428 kts 205°
2026-05-07 17:38 32.95933 -77.96074 35920 ft 429 kts 205°
2026-05-07 17:38 32.90236 -77.98035 35926 ft 429 kts 205°
2026-05-07 17:39 32.84493 -77.99991 35936 ft 429 kts 205°
2026-05-07 17:39 32.78746 -78.01938 35944 ft 429 kts 205°
2026-05-07 17:40 32.72997 -78.03888 35946 ft 429 kts 205°
2026-05-07 17:40 32.67259 -78.05853 35953 ft 429 kts 205°
2026-05-07 17:41 32.61521 -78.07811 35952 ft 429 kts 205°
2026-05-07 17:41 32.55769 -78.09769 35931 ft 430 kts 205°
2026-05-07 17:42 32.50009 -78.11708 35935 ft 431 kts 205°
2026-05-07 17:42 32.44240 -78.13654 35946 ft 431 kts 205°
2026-05-07 17:43 32.38507 -78.15593 35956 ft 431 kts 205°
2026-05-07 17:43 32.32730 -78.17545 35939 ft 432 kts 205°
2026-05-07 17:44 32.26942 -78.19500 35947 ft 432 kts 205°
2026-05-07 17:44 32.21156 -78.21440 35958 ft 433 kts 205°
2026-05-07 17:45 32.15350 -78.23390 35960 ft 433 kts 205°
2026-05-07 17:45 32.09598 -78.25329 35964 ft 433 kts 205°
2026-05-07 17:46 32.03803 -78.27268 35945 ft 433 kts 205°
2026-05-07 17:46 31.97991 -78.29212 35951 ft 434 kts 205°
2026-05-07 17:47 31.92171 -78.31155 35960 ft 435 kts 204°
2026-05-07 17:47 31.86341 -78.33099 35968 ft 435 kts 205°
2026-05-07 17:48 31.80551 -78.35033 35957 ft 435 kts 204°
2026-05-07 17:48 31.74719 -78.36981 35970 ft 436 kts 204°
2026-05-07 17:49 31.68879 -78.38924 35972 ft 436 kts 204°
2026-05-07 17:49 31.63035 -78.40875 35986 ft 437 kts 204°
2026-05-07 17:50 31.57181 -78.42817 35990 ft 437 kts 204°
2026-05-07 17:50 31.51318 -78.44748 35974 ft 438 kts 204°
2026-05-07 17:51 31.45441 -78.46662 35976 ft 439 kts 204°
2026-05-07 17:51 31.39552 -78.48560 35984 ft 439 kts 204°
2026-05-07 17:52 31.33697 -78.50447 35989 ft 439 kts 204°
2026-05-07 17:52 31.27803 -78.52353 35975 ft 439 kts 204°
2026-05-07 17:53 31.21914 -78.54270 35984 ft 440 kts 204°
2026-05-07 17:53 31.16014 -78.56188 35990 ft 440 kts 204°
2026-05-07 17:54 31.10099 -78.58087 36002 ft 441 kts 203°
2026-05-07 17:54 31.04175 -78.59980 36007 ft 442 kts 203°
2026-05-07 17:55 30.98247 -78.61881 35993 ft 442 kts 204°
2026-05-07 17:55 30.92314 -78.63800 35999 ft 443 kts 203°
2026-05-07 17:56 30.86369 -78.65711 36007 ft 443 kts 203°
2026-05-07 17:56 30.80453 -78.67605 36022 ft 444 kts 203°
2026-05-07 17:57 30.75451 -78.69196 36034 ft 444 kts 203°
2026-05-07 17:57 30.68519 -78.71415 36013 ft 445 kts 204°
2026-05-07 17:58 30.62546 -78.73329 36019 ft 446 kts 203°
2026-05-07 17:58 30.56558 -78.75240 36025 ft 446 kts 203°
2026-05-07 17:59 30.50565 -78.77143 36029 ft 446 kts 203°
2026-05-07 17:59 30.44569 -78.79045 36018 ft 446 kts 203°
2026-05-07 18:00 30.38581 -78.80940 36025 ft 446 kts 204°
2026-05-07 18:00 30.32597 -78.82839 36028 ft 446 kts 204°
2026-05-07 18:01 30.26647 -78.84728 36030 ft 446 kts 203°
2026-05-07 18:01 30.20661 -78.86616 36031 ft 446 kts 203°
2026-05-07 18:02 30.11676 -78.89455 36036 ft 446 kts 204°
2026-05-07 18:03 30.05696 -78.91351 36038 ft 446 kts 204°
2026-05-07 18:03 29.99751 -78.93224 36040 ft 446 kts 203°
2026-05-07 18:04 29.93763 -78.95104 36043 ft 446 kts 203°
2026-05-07 18:04 29.87765 -78.96990 36026 ft 446 kts 203°
2026-05-07 18:05 29.81762 -78.98869 36038 ft 447 kts 202°
2026-05-07 18:05 29.75564 -79.00139 36043 ft 453 kts 197°
2026-05-07 18:06 29.69375 -79.01284 36048 ft 453 kts 197°
2026-05-07 18:06 29.63152 -79.02447 36031 ft 453 kts 197°
2026-05-07 18:07 29.56912 -79.03601 36033 ft 454 kts 197°
2026-05-07 18:07 29.50662 -79.04746 36039 ft 454 kts 196°
2026-05-07 18:08 29.44416 -79.05894 36051 ft 455 kts 197°
2026-05-07 18:08 29.38170 -79.07042 36059 ft 454 kts 197°
2026-05-07 18:09 29.31916 -79.08187 36051 ft 455 kts 196°
2026-05-07 18:09 29.25660 -79.09337 36057 ft 455 kts 196°
2026-05-07 18:10 29.19409 -79.10491 36058 ft 455 kts 196°
2026-05-07 18:10 29.13155 -79.11635 36061 ft 455 kts 196°
2026-05-07 18:11 29.06902 -79.12777 36035 ft 455 kts 196°
2026-05-07 18:11 29.00687 -79.13908 36039 ft 456 kts 195°
2026-05-07 18:12 28.94417 -79.15045 36043 ft 456 kts 195°
2026-05-07 18:12 28.88148 -79.16185 36048 ft 456 kts 195°
2026-05-07 18:13 28.81874 -79.17325 36051 ft 456 kts 195°
2026-05-07 18:13 28.75604 -79.18463 36042 ft 456 kts 195°
2026-05-07 18:14 28.69331 -79.19606 36047 ft 457 kts 195°
2026-05-07 18:14 28.63042 -79.20748 36051 ft 457 kts 195°
2026-05-07 18:15 28.56758 -79.21878 36055 ft 457 kts 195°
2026-05-07 18:15 28.50478 -79.23006 36041 ft 457 kts 194°
2026-05-07 18:16 28.44184 -79.24139 36059 ft 458 kts 195°
2026-05-07 18:16 28.37888 -79.25280 36051 ft 459 kts 195°
2026-05-07 18:17 28.31609 -79.26538 36061 ft 454 kts 201°
2026-05-07 18:17 28.25554 -79.28514 36060 ft 453 kts 202°
2026-05-07 18:18 28.19531 -79.30471 36046 ft 453 kts 201°
2026-05-07 18:18 28.13462 -79.32432 36044 ft 454 kts 201°
2026-05-07 18:19 28.07377 -79.34397 36052 ft 454 kts 201°
2026-05-07 18:19 28.01287 -79.36364 35762 ft 455 kts 201°
2026-05-07 18:19 27.98246 -79.37343 35524 ft 455 kts 201°
2026-05-07 18:20 27.95202 -79.38327 35274 ft 455 kts 201°
2026-05-07 18:20 27.92153 -79.39315 35045 ft 456 kts 201°
2026-05-07 18:20 27.89091 -79.40307 34810 ft 457 kts 201°
2026-05-07 18:20 27.86036 -79.41298 34579 ft 457 kts 201°
2026-05-07 18:21 27.82972 -79.42290 34353 ft 458 kts 201°
2026-05-07 18:21 27.79908 -79.43278 34125 ft 457 kts 201°
2026-05-07 18:21 27.76848 -79.44264 33878 ft 456 kts 201°
2026-05-07 18:21 27.73795 -79.45245 33607 ft 457 kts 201°
2026-05-07 18:22 27.70774 -79.46211 33367 ft 457 kts 201°
2026-05-07 18:22 27.64650 -79.48171 32849 ft 459 kts 201°
2026-05-07 18:22 27.61574 -79.49157 32593 ft 460 kts 201°
2026-05-07 18:23 27.58483 -79.50147 31691 ft 464 kts 201°
2026-05-07 18:23 27.55393 -79.51137 31132 ft 458 kts 201°
2026-05-07 18:23 27.52337 -79.52112 30496 ft 455 kts 201°
2026-05-07 18:23 27.49302 -79.53081 29819 ft 452 kts 201°
2026-05-07 18:24 27.46297 -79.54041 29191 ft 447 kts 201°
2026-05-07 18:24 27.43322 -79.54989 28592 ft 442 kts 201°
2026-05-07 18:24 27.40380 -79.55929 27991 ft 438 kts 201°
2026-05-07 18:24 27.37458 -79.56862 27414 ft 433 kts 201°
2026-05-07 18:25 27.34573 -79.57778 26838 ft 430 kts 201°
2026-05-07 18:25 27.32670 -79.58379 26460 ft 427 kts 201°
2026-05-07 18:25 27.29814 -79.59277 25902 ft 424 kts 200°
2026-05-07 18:25 27.26979 -79.60166 25335 ft 421 kts 200°
2026-05-07 18:26 27.24165 -79.61047 24790 ft 419 kts 200°
2026-05-07 18:26 27.21363 -79.61926 24243 ft 417 kts 200°
2026-05-07 18:26 27.18586 -79.62796 23716 ft 414 kts 200°
2026-05-07 18:26 27.15830 -79.63668 23208 ft 407 kts 201°
2026-05-07 18:27 27.13154 -79.64523 22544 ft 403 kts 201°
2026-05-07 18:27 27.10466 -79.65389 22004 ft 401 kts 201°
2026-05-07 18:27 27.07791 -79.66252 21483 ft 399 kts 200°
2026-05-07 18:27 27.05127 -79.67110 20958 ft 397 kts 200°
2026-05-07 18:28 27.02479 -79.67960 20440 ft 395 kts 200°
2026-05-07 18:28 26.99847 -79.68802 19983 ft 392 kts 199°
2026-05-07 18:28 26.97231 -79.69636 19503 ft 387 kts 199°
2026-05-07 18:28 26.94664 -79.70454 18838 ft 380 kts 199°
2026-05-07 18:29 26.92115 -79.71269 18335 ft 381 kts 199°
2026-05-07 18:29 26.89562 -79.72086 17786 ft 380 kts 199°
2026-05-07 18:29 26.87025 -79.72896 17280 ft 378 kts 199°
2026-05-07 18:29 26.84510 -79.73696 16816 ft 375 kts 199°
2026-05-07 18:30 26.82013 -79.74489 16531 ft 367 kts 198°
2026-05-07 18:30 26.79589 -79.75256 16281 ft 359 kts 198°
2026-05-07 18:30 26.77184 -79.76017 15812 ft 358 kts 198°
2026-05-07 18:30 26.74800 -79.76772 15366 ft 357 kts 198°
2026-05-07 18:31 26.72422 -79.77524 15022 ft 351 kts 198°
2026-05-07 18:31 26.70092 -79.78261 14392 ft 344 kts 198°
2026-05-07 18:31 26.67808 -79.79075 13948 ft 345 kts 200°
2026-05-07 18:31 26.65579 -79.79965 13526 ft 342 kts 202°
2026-05-07 18:32 26.63389 -79.80889 13365 ft 332 kts 202°
2026-05-07 18:32 26.61244 -79.81804 13003 ft 328 kts 202°
2026-05-07 18:32 26.59130 -79.82697 12725 ft 322 kts 202°
2026-05-07 18:32 26.57038 -79.83567 12392 ft 319 kts 201°
2026-05-07 18:33 26.54964 -79.84424 12025 ft 316 kts 202°
2026-05-07 18:33 26.52927 -79.85330 11684 ft 313 kts 204°
2026-05-07 18:33 26.50951 -79.86260 11248 ft 305 kts 204°
2026-05-07 18:33 26.49014 -79.87193 10609 ft 302 kts 204°
2026-05-07 18:34 26.47091 -79.88122 9981 ft 299 kts 203°
2026-05-07 18:34 26.45197 -79.89030 9407 ft 294 kts 203°
2026-05-07 18:34 26.43314 -79.89922 9017 ft 293 kts 203°
2026-05-07 18:34 26.41441 -79.90802 8647 ft 291 kts 203°
2026-05-07 18:35 26.39579 -79.91672 8270 ft 289 kts 203°
2026-05-07 18:35 26.37771 -79.92611 7923 ft 286 kts 211°
2026-05-07 18:35 26.36057 -79.93732 7805 ft 285 kts 210°
2026-05-07 18:35 26.34340 -79.94841 7660 ft 285 kts 210°
2026-05-07 18:36 26.32624 -79.95941 7506 ft 284 kts 210°
2026-05-07 18:36 26.30907 -79.97040 7353 ft 284 kts 210°
2026-05-07 18:36 26.29202 -79.98132 7201 ft 283 kts 210°
2026-05-07 18:36 26.27497 -79.99222 7053 ft 282 kts 210°
2026-05-07 18:37 26.25796 -80.00309 6898 ft 282 kts 210°
2026-05-07 18:37 26.24100 -80.01395 6743 ft 281 kts 210°
2026-05-07 18:37 26.22411 -80.02479 6585 ft 280 kts 210°
2026-05-07 18:37 26.20747 -80.03550 6436 ft 280 kts 210°
2026-05-07 18:38 26.19138 -80.04763 6272 ft 279 kts 223°
2026-05-07 18:38 26.17892 -80.06408 6123 ft 278 kts 239°
2026-05-07 18:38 26.17113 -80.08360 5972 ft 277 kts 252°
2026-05-07 18:38 26.16511 -80.10399 5811 ft 276 kts 252°
2026-05-07 18:39 26.15903 -80.12425 5656 ft 275 kts 251°
2026-05-07 18:39 26.15305 -80.14433 5501 ft 268 kts 255°
2026-05-07 18:39 26.15027 -80.16431 5380 ft 255 kts 269°
2026-05-07 18:39 26.15036 -80.18369 5219 ft 246 kts 270°
2026-05-07 18:40 26.15049 -80.20282 5140 ft 248 kts 270°
2026-05-07 18:40 26.15058 -80.22195 5036 ft 247 kts 270°
2026-05-07 18:40 26.15069 -80.24114 4837 ft 248 kts 270°
2026-05-07 18:40 26.15080 -80.26011 4581 ft 242 kts 270°
2026-05-07 18:41 26.15090 -80.27842 4350 ft 237 kts 269°
2026-05-07 18:41 26.14889 -80.29629 4066 ft 232 kts 250°
2026-05-07 18:41 26.14084 -80.31162 3761 ft 230 kts 227°
2026-05-07 18:41 26.12829 -80.32203 3499 ft 222 kts 205°
2026-05-07 18:42 26.11379 -80.32626 3258 ft 211 kts 184°
2026-05-07 18:42 26.09953 -80.32418 3011 ft 206 kts 160°
2026-05-07 18:42 26.08752 -80.31592 2726 ft 203 kts 136°
2026-05-07 18:42 26.07982 -80.30299 2436 ft 201 kts 111°
2026-05-07 18:43 26.07752 -80.28784 2181 ft 199 kts 91°
2026-05-07 18:43 26.07751 -80.27269 1920 ft 191 kts 91°
2026-05-07 18:43 26.07745 -80.25832 1665 ft 179 kts 92°
2026-05-07 18:43 26.07738 -80.24509 1463 ft 163 kts 92°
2026-05-07 18:44 26.07731 -80.23287 1242 ft 153 kts 92°
2026-05-07 18:44 26.07725 -80.22142 1045 ft 146 kts 92°
2026-05-07 18:44 26.07719 -80.21043 860 ft 142 kts 92°
2026-05-07 18:44 26.07711 -80.19951 670 ft 139 kts 93°
2026-05-07 18:45 26.07710 -80.18885 469 ft 138 kts 93°
2026-05-07 18:45 26.07704 -80.17831 313 ft 135 kts 91°
2026-05-07 18:45 26.07696 -80.16788 92 ft 134 kts 92°
2026-05-07 18:45 26.07691 -80.15796 18 ft 113 kts 90°
2026-05-07 18:46 26.07684 -80.15036 16 ft 81 kts 90°
2026-05-07 18:46 26.07685 -80.14599 19 ft 29 kts 90°
2026-05-07 18:46 26.07629 -80.14402 20 ft 27 kts 119°
2026-05-07 18:46 26.07592 -80.14337 18 ft 0 kts 122°
2026-05-07 18:47 26.07591 -80.14335 18 ft 1 kts 122°
2026-05-07 18:47 26.07586 -80.14326 18 ft 4 kts 122°
2026-05-07 18:47 26.07566 -80.14289 17 ft 7 kts 120°
2026-05-07 18:47 26.07534 -80.14238 17 ft 10 kts 143°
2026-05-07 18:48 26.07465 -80.14199 16 ft 12 kts 153°
2026-05-07 18:48 26.07402 -80.14189 16 ft 10 kts 179°
2026-05-07 18:48 26.07345 -80.14211 16 ft 8 kts 254°
2026-05-07 18:48 26.07343 -80.14253 16 ft 2 kts 269°
2026-05-07 18:49 26.07343 -80.14256 16 ft 0 kts 269°